CYGFM02 (41886 NORAD) Tracking and Keplerian Element Data

This shows tracking and keplerian element data for the satellite.

Feedback or suggestion? Click here.




ElementValue
Catalog41886
NameCYGFM02
Epoch Orbit12090
Epoch Day51.66840475
Epoch Year2019
RAAN175.3614
Inclination34.958
Eccentricity0.0014508
Argument of Perigee56.0532
Mean Anonmoly304.1557
Mean Motion15.14816493
Decay Rate3.29E-06
L11 41886U 16078C 19051.66840475 .00000329 00000-0 19050-4 0 9998
L22 41886 34.9580 175.3614 0014508 56.0532 304.1557 15.14816493120903

Live tracking and technical data element details for CYGFM02 (NORAD 41886). CYGFM02 can be tracked NOW for your location showing map with azimuth and elevation plus other details from your city location.

Track the satellite on the map from your city or location and see movement details for azimuth, elevation, latitude, longitude, range, height, and movement on the map or in text.







IsCatalogInMostPopularTable: catalog: 41886, numindb: 197
Update: records affected: 1



GetName: 41886 CYGFM02

Hit Count: updated at: Thu, 21 Feb 2019 12:25:21 GMT